TimeCST,TemperatureF,Dew PointF,Humidity,Sea Level PressureIn,VisibilityMPH,Wind Direction,Wind SpeedMPH,Gust SpeedMPH,PrecipitationIn,Events,Conditions,WindDirDegrees,DateUTC
12:15 AM,37.4,35.6,93,30.22,7.0,Calm,Calm,-,N/A,,Clear,0,2012-11-21 06:15:00
12:35 AM,35.6,33.8,93,30.22,5.0,SE,5.8,-,N/A,,Clear,130,2012-11-21 06:35:00
12:55 AM,35.6,33.8,93,30.22,5.0,SSE,4.6,-,N/A,,Clear,160,2012-11-21 06:55:00
1:15 AM,33.8,32.0,93,30.22,5.0,South,3.5,-,N/A,,Clear,180,2012-11-21 07:15:00
1:35 AM,35.6,33.8,93,30.22,7.0,Calm,Calm,-,N/A,,Clear,0,2012-11-21 07:35:00
1:55 AM,35.6,33.8,93,30.22,7.0,SSE,3.5,-,N/A,,Clear,160,2012-11-21 07:55:00
2:15 AM,33.8,33.8,100,30.22,7.0,SSE,4.6,-,N/A,,Clear,160,2012-11-21 08:15:00
2:35 AM,33.8,32.0,93,30.22,5.0,SSE,5.8,-,N/A,,Clear,160,2012-11-21 08:35:00
2:55 AM,33.8,32.0,93,30.22,5.0,South,3.5,-,N/A,,Clear,190,2012-11-21 08:55:00
3:55 AM,35.6,33.8,93,30.22,5.0,South,4.6,-,N/A,,Clear,190,2012-11-21 09:55:00
4:15 AM,33.8,32.0,93,30.22,4.0,Calm,Calm,-,N/A,,Clear,0,2012-11-21 10:15:00
4:35 AM,35.6,33.8,93,30.22,4.0,South,3.5,-,N/A,,Clear,170,2012-11-21 10:35:00
4:55 AM,33.8,32.0,93,30.22,5.0,South,4.6,-,N/A,,Clear,170,2012-11-21 10:55:00
5:15 AM,35.6,33.8,93,30.22,5.0,South,4.6,-,N/A,,Clear,170,2012-11-21 11:15:00
5:35 AM,35.6,33.8,93,30.22,4.0,South,4.6,-,N/A,,Clear,170,2012-11-21 11:35:00
5:55 AM,35.6,33.8,93,30.22,3.0,South,3.5,-,N/A,,Clear,180,2012-11-21 11:55:00
6:15 AM,35.6,33.8,93,30.22,2.5,SSE,5.8,-,N/A,,Clear,160,2012-11-21 12:15:00
6:35 AM,35.6,33.8,93,30.22,1.8,South,3.5,-,N/A,,Mist,190,2012-11-21 12:35:00
6:55 AM,35.6,35.6,100,30.22,0.8,SSW,4.6,-,N/A,,Mist,200,2012-11-21 12:55:00
7:15 AM,37.4,37.4,100,30.22,-9999.0,South,3.5,-,N/A,,Unknown,180,2012-11-21 13:15:00
7:35 AM,37.4,35.6,93,30.23,0.5,South,4.6,-,N/A,Fog,Fog,170,2012-11-21 13:35:00
7:55 AM,37.4,35.6,93,30.23,0.2,South,6.9,-,N/A,Fog,Fog,170,2012-11-21 13:55:00
8:15 AM,39.2,37.4,93,30.23,4.0,South,4.6,-,N/A,,Clear,170,2012-11-21 14:15:00
8:35 AM,42.8,41.0,93,30.23,7.0,South,5.8,-,N/A,,Clear,170,2012-11-21 14:35:00
8:55 AM,44.6,42.8,93,30.23,7.0,South,6.9,-,N/A,,Clear,170,2012-11-21 14:55:00
9:15 AM,50.0,44.6,82,30.23,10.0,South,4.6,-,N/A,,Clear,180,2012-11-21 15:15:00
9:35 AM,51.8,44.6,76,30.24,10.0,SSE,10.4,-,N/A,,Clear,160,2012-11-21 15:35:00
9:55 AM,53.6,44.6,72,30.24,10.0,SSE,10.4,-,N/A,,Clear,160,2012-11-21 15:55:00
10:15 AM,53.6,44.6,72,30.24,10.0,South,10.4,-,N/A,,Clear,170,2012-11-21 16:15:00
10:35 AM,55.4,44.6,67,30.23,10.0,South,8.1,-,N/A,,Clear,170,2012-11-21 16:35:00
10:55 AM,59.0,44.6,59,30.23,10.0,South,9.2,-,N/A,,Clear,190,2012-11-21 16:55:00
11:15 AM,59.0,42.8,55,30.22,10.0,South,9.2,-,N/A,,Clear,170,2012-11-21 17:15:00
11:55 AM,62.6,44.6,52,30.20,10.0,South,9.2,-,N/A,,Clear,180,2012-11-21 17:55:00
12:15 PM,62.6,42.8,48,30.18,10.0,South,9.2,-,N/A,,Clear,170,2012-11-21 18:15:00
12:35 PM,64.4,42.8,45,30.17,10.0,South,9.2,-,N/A,,Clear,170,2012-11-21 18:35:00
12:55 PM,66.2,41.0,40,30.16,10.0,South,11.5,-,N/A,,Clear,180,2012-11-21 18:55:00
1:15 PM,66.2,39.2,37,30.15,10.0,South,12.7,-,N/A,,Clear,180,2012-11-21 19:15:00
1:35 PM,68.0,39.2,35,30.14,10.0,South,10.4,16.1,N/A,,Clear,190,2012-11-21 19:35:00
1:55 PM,68.0,37.4,33,30.13,10.0,South,9.2,-,N/A,,Clear,170,2012-11-21 19:55:00
2:15 PM,68.0,39.2,35,30.13,10.0,South,12.7,-,N/A,,Clear,170,2012-11-21 20:15:00
2:35 PM,68.0,41.0,37,30.12,10.0,SSE,10.4,18.4,N/A,,Clear,160,2012-11-21 20:35:00
2:55 PM,68.0,39.2,35,30.11,10.0,South,10.4,-,N/A,,Clear,180,2012-11-21 20:55:00
3:15 PM,68.0,39.2,35,30.11,10.0,South,8.1,16.1,N/A,,Clear,170,2012-11-21 21:15:00
3:35 PM,68.0,37.4,33,30.11,10.0,South,10.4,-,N/A,,Clear,170,2012-11-21 21:35:00
3:55 PM,66.2,37.4,35,30.10,10.0,South,8.1,-,N/A,,Clear,170,2012-11-21 21:55:00
4:15 PM,64.4,37.4,37,30.10,10.0,SSE,8.1,-,N/A,,Clear,160,2012-11-21 22:15:00
4:35 PM,62.6,39.2,42,30.09,10.0,SSE,5.8,-,N/A,,Clear,160,2012-11-21 22:35:00
4:55 PM,59.0,37.4,45,30.08,10.0,SE,6.9,-,N/A,,Clear,140,2012-11-21 22:55:00
5:15 PM,57.2,39.2,51,30.08,10.0,SE,5.8,-,N/A,,Clear,140,2012-11-21 23:15:00
5:55 PM,55.4,39.2,54,30.08,10.0,SE,8.1,-,N/A,,Clear,140,2012-11-21 23:55:00
6:15 PM,53.6,41.0,62,30.08,10.0,SSE,8.1,-,N/A,,Clear,150,2012-11-22 00:15:00
6:35 PM,55.4,39.2,54,30.08,10.0,SSE,8.1,-,N/A,,Clear,150,2012-11-22 00:35:00
6:55 PM,55.4,39.2,54,30.08,10.0,SSE,9.2,-,N/A,,Clear,150,2012-11-22 00:55:00
7:15 PM,55.4,39.2,54,30.07,10.0,SSE,9.2,-,N/A,,Clear,160,2012-11-22 01:15:00
7:35 PM,53.6,37.4,54,30.07,10.0,SSE,8.1,-,N/A,,Clear,160,2012-11-22 01:35:00
7:55 PM,53.6,37.4,54,30.06,10.0,SSE,8.1,-,N/A,,Clear,150,2012-11-22 01:55:00
8:15 PM,53.6,37.4,54,30.06,10.0,SSE,9.2,-,N/A,,Clear,160,2012-11-22 02:15:00
8:35 PM,53.6,37.4,54,30.05,10.0,SSE,9.2,-,N/A,,Clear,160,2012-11-22 02:35:00
8:55 PM,53.6,37.4,54,30.05,10.0,SSE,9.2,-,N/A,,Clear,160,2012-11-22 02:55:00
9:15 PM,53.6,37.4,54,30.05,10.0,SSE,9.2,-,N/A,,Clear,160,2012-11-22 03:15:00
9:35 PM,53.6,35.6,51,30.05,10.0,SSE,10.4,-,N/A,,Clear,160,2012-11-22 03:35:00
9:55 PM,53.6,35.6,51,30.05,10.0,SSE,8.1,-,N/A,,Clear,160,2012-11-22 03:55:00
10:15 PM,51.8,35.6,54,30.04,10.0,SSE,9.2,-,N/A,,Clear,160,2012-11-22 04:15:00
10:35 PM,51.8,35.6,54,30.03,10.0,South,8.1,-,N/A,,Clear,170,2012-11-22 04:35:00
10:55 PM,51.8,35.6,54,30.03,10.0,South,6.9,-,N/A,,Clear,170,2012-11-22 04:55:00
11:15 PM,51.8,35.6,54,30.03,10.0,South,5.8,-,N/A,,Clear,170,2012-11-22 05:15:00
11:35 PM,51.8,35.6,54,30.02,10.0,SSE,8.1,-,N/A,,Clear,160,2012-11-22 05:35:00
11:55 PM,51.8,35.6,54,30.02,10.0,SSE,8.1,-,N/A,,Clear,160,2012-11-22 05:55:00